#timestamp,LO_Frequency,Hit,StdDev 
1668049215.1,286046999.3,N
1668049235.9,286046996.5,P
1668049255.7,286046997.5,N
1668049275.5,286046997.4,N
1668049295.4,286046997.7,N
1668049315.2,286046996.5,Y
1668049335.0,286046998.8,P
1668049335.9,286046998.8,N
1668049355.8,286047001.2,N
1668049375.6,286046998.4,N
1668049395.5,286047002.2,N
1668049415.3,286047001.6,N
1668049435.1,286047004.0,N
1668049455.9,286047001.6,N
1668049475.7,286047001.9,N
1668049495.5,286047001.9,N
1668049515.4,286047002.2,N
1668049535.2,286047001.8,N
1668049555.0,286047003.6,N
1668049555.9,286047003.6,N
1668049575.8,286047004.3,N
1668049595.6,286047001.6,N
1668049615.4,286047003.9,N
1668049635.3,286047004.1,N
1668049655.1,286047004.4,N
1668049656.0,286047004.4,N
1668049675.8,286047002.0,N
1668049695.7,286046999.7,N
1668049715.5,286047002.0,N
1668049735.3,286047002.0,N
1668049755.2,286046999.7,N
1668049775.9,286046999.7,N
1668049795.7,286047001.8,N
1668049815.6,286047002.2,N
1668049835.4,286047004.0,N
1668049855.2,286047001.4,N
1668049875.1,286047003.2,N
1668049876.0,286047003.2,N
1668049895.8,286047006.0,Y
1668049915.6,286047000.1,P
1668049935.5,286046999.9,N
1668049955.3,286047000.3,N
1668049975.1,286046998.2,N
1668049995.9,286047001.2,N
1668050015.7,286046998.3,N
1668050035.6,286046998.2,N
1668050055.4,286046998.5,N
1668050075.2,286046998.6,N
1668050095.1,286047000.5,N
1668050096.0,286047000.5,N
1668050115.8,286047002.8,N
1668050135.6,286047002.7,N
1668050155.5,286047002.1,N
1668050175.3,286047000.3,N
1668050195.1,286047002.7,N
1668050215.9,286047001.6,N
1668050235.7,286047002.4,N
1668050255.5,286047000.8,N
1668050275.4,286046999.6,N
1668050295.2,286046997.4,N
1668050315.0,286046997.9,N
1668050315.9,286046997.9,N
1668050335.8,286046998.7,N
1668050355.6,286046998.8,N
1668050375.4,286046999.2,N
1668050395.3,286046999.4,N
1668050415.1,286046999.0,N
1668050435.8,286046999.3,N
1668050455.7,286046998.9,N
1668050475.5,286046998.9,N
1668050495.3,286046998.8,N
1668050515.2,286046997.3,N
1668050535.0,286046997.4,N
1668050535.9,286046997.4,N
1668050555.7,286046997.7,N
1668050575.6,286046994.9,N
1668050595.4,286046997.9,N
1668050615.2,286046997.9,N
1668050635.1,286046996.8,N
1668050636.0,286046996.8,N
1668050655.8,286046997.4,N
1668050675.7,286046995.4,N
1668050695.5,286046996.1,N
1668050715.3,286046995.9,N
1668050735.2,286046995.5,N
1668050755.9,286046995.5,N
1668050775.7,286046993.7,Y
1668050795.6,286046996.1,P
1668050815.4,286046995.2,P
1668050835.2,286046995.0,P
1668050855.1,286046994.9,Y
1668050856.0,286046994.9,P
1668050875.8,286047002.6,P
1668050895.6,286047002.6,N
1668050915.5,286047002.1,N
1668050935.3,286047002.3,N
1668050955.1,286047000.8,N
1668050975.9,286047000.8,N
1668050995.7,286047001.1,N
1668051015.5,286047000.9,N
1668051035.4,286046998.9,N
1668051055.2,286046998.2,N
1668051075.0,286046998.8,N
1668051075.9,286046998.8,N
1668051095.8,286046999.5,N
1668051115.6,286046999.1,N
1668051135.4,286046999.3,N
1668051155.3,286046998.8,N
1668051175.1,286046999.2,N
1668051195.9,286046999.1,N
1668051215.7,286046998.1,N
1668051235.5,286046999.0,N
1668051255.4,286046999.6,N
1668051275.2,286046996.5,N
1668051295.0,286046997.1,N
1668051295.9,286046997.1,N
1668051315.8,286046999.5,N
1668051335.6,286046999.1,N
1668051355.4,286047001.1,N
1668051375.3,286046998.1,N
1668051395.1,286046998.8,N
1668051396.0,286046998.8,N
1668051415.8,286047000.8,N
1668051435.7,286046999.4,N
1668051455.5,286046998.4,N
1668051475.3,286046998.4,N
1668051495.2,286047001.2,N
1668051515.9,286046999.0,N
1668051535.7,286046999.5,N
1668051555.6,286046999.4,N
1668051575.4,286046996.5,Y
1668051595.2,286046999.9,P
1668051615.1,286047000.4,N
1668051616.0,286047000.4,N
1668051635.8,286047000.2,N
1668051655.6,286047001.2,N
1668051675.5,286046998.6,N
1668051695.3,286046998.8,N
1668051715.1,286046999.1,N
1668051735.9,286047001.0,N
1668051755.7,286046998.5,N
1668051775.5,286046998.3,N
1668051795.4,286046998.7,N
1668051815.2,286046998.9,N
1668051835.0,286046999.1,N
1668051835.9,286046999.1,N
1668051855.8,286046998.5,N
1668051875.6,286047001.1,N
1668051895.4,286046998.3,N
1668051915.3,286047000.8,N
1668051965.1,286047000.5,E
1668051975.1,286047000.2,N
1668051976.0,286047000.2,P
1668051995.8,286046998.2,P
1668052015.6,286046998.6,N
1668052035.5,286047000.7,N
1668052055.3,286047001.0,N
1668052075.1,286046998.4,N
1668052095.9,286046998.1,N
1668052115.7,286047001.2,N
1668052135.5,286047000.5,N
1668052155.4,286046998.5,N
1668052175.2,286046999.6,N
1668052195.0,286047001.2,N
1668052195.9,286047001.2,N
1668052215.8,286046996.8,N
1668052235.6,286046997.1,N
1668052255.4,286046996.8,N
1668052275.3,286046997.3,N
1668052295.1,286046996.5,N
1668052315.8,286046999.5,N
1668052335.7,286046998.2,N
1668052355.5,286046998.2,N
1668052375.3,286046999.4,N
1668052395.2,286046997.1,N
1668052415.0,286046999.5,N
1668052415.9,286046999.5,N
1668052435.8,286046997.5,N
1668052455.6,286046995.0,Y
1668052475.4,286046998.7,P
1668052495.3,286046998.7,P
1668052515.1,286046996.8,P
1668052516.0,286046996.8,Y
1668052535.8,286047001.2,P
1668052555.7,286046998.5,N
1668052575.5,286046998.5,N
1668052595.3,286046996.5,N
1668052615.2,286046997.0,N
1668052635.9,286046999.0,N
1668052655.7,286046998.9,N
1668052675.6,286046996.7,N
1668052695.4,286046998.7,N
1668052715.2,286046998.8,N
1668052735.1,286046999.0,N
1668052736.0,286046999.0,N
1668052755.8,286046996.6,N
1668052775.6,286046997.2,N
1668052795.5,286046998.5,N
